[[{"header":{"parameterUnit":"m.s-1","parameterCategory":1,"la1":30.2991,"la2":30.254,"lo1":-89.0895,"lo2":-89.0444,"dy":0.0017,"dx":0.0017,"nx":28,"ny":28,"refTime":"2025-04-21T03:00:00:Z","depth":0,"parameterNumber":2,"parameterNumberName":"U-component_of_WINDS"},"data":[0,0,0,0,0,0,0,0,0,0,0,0,0,0,0,0,0,0,0,0,0,0,0,0,0,0,0,0,0,0,0,0,0,0,0,0,0,0,0,0,0,0,0,0,0,0,0,0,0,0,0,0,0,0,0,0,0,0,-2.1202,-2.1203,0,-2.1256,-2.1257,-2.1258,-2.1264,-2.1263,-2.1263,-2.1262,-2.1315,-2.1317,-2.1318,0,0,0,0,0,0,0,0,0,0,0,0,0,-2.1102,-2.1104,-2.1202,-2.1203,-2.1204,-2.1256,-2.1257,-2.1258,-2.1264,-2.1263,-2.1262,-2.1262,-2.1314,-2.1316,-2.1319,0,0,0,0,0,0,0,0,0,0,0,0,0,-2.115,-2.1105,-2.1202,-2.1213,-2.1215,-2.1256,-2.1257,-2.1258,-2.1264,-2.1263,-2.1262,-2.1262,-2.1313,-2.1316,-2.1319,-2.1352,0,0,-2.1328,-2.1329,0,0,0,0,0,0,0,0,-2.1147,-2.1154,-2.1211,-2.1212,-2.1214,-2.1253,-2.1241,-2.1289,-2.1264,-2.1245,-2.1262,-2.1261,-2.1294,-2.1299,-2.1311,-2.1355,-2.1357,-2.1328,-2.133,-2.1331,-2.1332,0,0,0,0,0,0,0,-2.1144,-2.1151,-2.1224,-2.1212,-2.1214,-2.1215,-2.1221,-2.125,-2.1273,-2.1247,-2.1247,-2.1254,-2.1295,-2.1308,-2.1312,-2.1358,-2.1328,-2.133,-2.1332,-2.1333,-2.1432,-2.1433,0,0,0,0,0,0,-2.1139,-2.1149,-2.1222,-2.1225,-2.1178,-2.1217,-2.1224,-2.1241,-2.1273,-2.1277,-2.1254,-2.1254,-2.1303,-2.1309,-2.1314,-2.1355,-2.1331,-2.1333,-2.1335,-2.1432,-2.1433,-2.1434,0,0,0,0,0,0,-2.1137,-2.1145,-2.122,-2.1187,-2.1197,-2.122,-2.1239,-2.1242,-2.1255,-2.1279,-2.1283,-2.1263,-2.1303,-2.131,-2.1343,-2.1357,-2.1335,-2.1337,-2.143,-2.1432,-2.1433,-2.1438,0,0,0,0,0,0,-2.1134,-2.1145,-2.1158,-2.1187,-2.1198,-2.1249,-2.124,-2.1244,-2.126,-2.126,-2.1288,-2.1292,-2.1303,-2.1339,-2.1346,-2.136,-2.1339,-2.1429,-2.1431,-2.1433,-2.1436,-2.1439,-2.1441,0,0,0,0,0,-2.113,-2.1156,-2.1159,-2.1167,-2.1216,-2.1249,-2.1256,-2.1268,-2.1261,-2.1275,-2.129,-2.1291,-2.1355,-2.1342,-2.135,-2.1366,-2.1428,-2.1431,-2.1433,-2.1435,-2.1439,-2.1441,0,0,0,0,0,0,-2.1127,-2.116,-2.1163,-2.12,-2.1222,-2.125,-2.1267,-2.1271,-2.1295,-2.1293,-2.1307,-2.1314,-2.1346,-2.1359,-2.1345,-2.14,-2.1391,-2.1395,-2.139,-2.1393,-2.1396,-2.1391,-2.1342,0,0,0,0,0,-2.1131,-2.1156,-2.1184,-2.1213,-2.1224,-2.1244,-2.1259,-2.1267,-2.129,-2.1299,-2.1317,-2.1339,-2.1363,-2.1379,-2.1403,-2.1439,-2.1445,-2.1454,-2.1456,-2.1458,-2.1461,-2.148,-2.1485,-2.1441,-2.1441,-2.1441,0,0,-2.1138,-2.116,-2.1175,-2.1213,-2.1231,-2.1256,-2.1252,-2.1279,-2.1297,-2.1303,-2.1335,-2.135,-2.1374,-2.1409,-2.1425,-2.1421,-2.1474,-2.1461,-2.1462,-2.1464,-2.1483,-2.1487,-2.1491,-2.1442,-2.1442,-2.1442,0,0,-2.1165,-2.1184,-2.1211,-2.1229,-2.1257,-2.127,-2.1276,-2.1305,-2.1314,-2.1348,-2.1353,-2.1375,-2.1417,-2.1435,-2.1449,-2.1484,-2.1485,-2.1491,-2.1504,-2.1523,-2.1526,-2.1529,-2.1541,-2.1545,-2.1494,-2.1494,-2.1494,0,-2.117,-2.1209,-2.1224,-2.1251,-2.1267,-2.1275,-2.1302,-2.1319,-2.1352,-2.1363,-2.1359,-2.1413,-2.143,-2.1469,-2.1477,-2.1489,-2.1496,-2.1487,-2.1525,-2.1528,-2.1531,-2.1542,-2.1547,-2.1495,-2.1495,-2.1495,-2.1494,0,-2.1214,-2.1241,-2.1259,-2.1293,-2.1312,-2.1339,-2.1357,-2.1374,-2.1381,-2.1394,-2.1428,-2.1449,-2.1478,-2.1488,-2.1494,-2.1528,-2.1524,-2.1522,-2.1513,-2.1536,-2.1546,-2.1551,-2.1495,-2.1495,-2.1495,-2.1495,0,0,-2.1239,-2.1281,-2.1287,-2.1303,-2.1334,-2.1355,-2.1382,-2.1411,-2.1426,-2.1449,-2.1472,-2.1508,-2.1507,-2.1523,-2.1532,-2.1548,-2.1574,-2.1544,-2.1545,-2.1548,-2.1612,-2.1612,-2.1617,-2.1576,-2.1577,-2.1577,-2.1609,0,-2.1268,-2.1318,-2.1332,-2.1373,-2.1398,-2.1406,-2.143,-2.1451,-2.1465,-2.1488,-2.1502,-2.1528,-2.1524,-2.1534,-2.1551,-2.1567,-2.1587,-2.1565,-2.1596,-2.1597,-2.1589,-2.1623,-2.1624,-2.1653,-2.1614,-2.1615,-2.1615,0,-2.1309,-2.1334,-2.1378,-2.1407,-2.1418,-2.1439,-2.1467,-2.1489,-2.1514,-2.1522,-2.1542,-2.1549,-2.1577,-2.1567,-2.1606,-2.1591,-2.1605,-2.1614,-2.1616,-2.1618,-2.1607,-2.1626,-2.1663,-2.1667,-2.1622,-2.1621,-2.1621,0,-2.1322,-2.1367,-2.1399,-2.1412,-2.1447,-2.1461,-2.1476,-2.15,-2.1517,-2.1541,-2.1552,-2.1579,-2.1594,-2.1614,-2.1629,-2.162,-2.1666,-2.1657,-2.1673,-2.1673,-2.1681,-2.1681,-2.172,-2.1692,-2.1692,-2.1692,-2.1691,0,-2.1353,-2.1379,-2.1405,-2.1425,-2.1455,-2.1471,-2.15,-2.1515,-2.1537,-2.1559,-2.1568,-2.1588,-2.1606,-2.1629,-2.1641,-2.1671,-2.1677,-2.1685,-2.1687,-2.1683,-2.1682,-2.1692,-2.169,-2.1693,-2.1693,-2.1692,-2.1692,0,-2.1372,-2.139,-2.1426,-2.1456,-2.1465,-2.1485,-2.1511,-2.153,-2.1544,-2.1573,-2.158,-2.1602,-2.163,-2.1647,-2.1681,-2.1689,-2.1722,-2.1724,-2.1714,-2.1715,-2.1729,-2.1728,-2.1776,-2.1783,-2.175,-2.1751,-2.1751,0,-2.139,-2.1411,-2.1444,-2.146,-2.1475,-2.1501,-2.1518,-2.1535,-2.1553,-2.1583,-2.1598,-2.1627,-2.165,-2.1694,-2.1713,-2.1739,-2.1742,-2.1757,-2.1745,-2.1741,-2.1741,-2.1739,-2.1741,-2.1758,-2.1758,-2.1759,-2.1759,0,-2.142,-2.1428,-2.1454,-2.1482,-2.1503,-2.1526,-2.1549,-2.1562,-2.1582,-2.1602,-2.163,-2.1649,-2.1685,-2.1713,-2.1741,-2.1756,-2.1761,-2.1763,-2.1767,-2.1763,-2.1756,-2.176,-2.1718,-2.1761,-2.1761,-2.1761,-2.176,-2.176,-2.1439,-2.1457,-2.1484,-2.1512,-2.1531,-2.1552,-2.1572,-2.159,-2.1614,-2.1645,-2.1654,-2.1684,-2.1708,-2.1747,-2.1763,-2.1786,-2.1784,-2.1791,-2.1793,-2.1794,-2.1794,-2.1754,-2.1791,-2.1791,-2.1791,-2.1791,-2.1791,0,-2.1469,-2.1486,-2.1512,-2.1544,-2.1566,-2.157,-2.1596,-2.1614,-2.164,-2.1663,-2.1687,-2.172,-2.1747,-2.1769,-2.1797,-2.1811,-2.1814,-2.1818,-2.1817,-2.182,-2.1795,-2.1788,-2.1815,-2.1815,-2.1815,-2.1815,-2.1815,-2.1815,-2.1487,-2.1519,-2.1531,-2.1572,-2.159,-2.162,-2.1634,-2.1654,-2.1672,-2.1709,-2.1732,-2.1747,-2.1769,-2.1799,-2.1824,-2.1829,-2.1839,-2.1842,-2.1848,-2.1824,-2.1822,-2.1819,-2.1812,-2.1844,-2.1844,-2.1871,-2.1871,-2.1872]},{"header":{"parameterUnit":"m.s-1","parameterCategory":1,"la1":30.2991,"la2":30.254,"lo1":-89.0895,"lo2":-89.0444,"dy":0.0017,"dx":0.0017,"nx":28,"ny":28,"refTime":"2025-04-21T03:00:00:Z","depth":0,"parameterNumber":3,"parameterNumberName":"V-component_of_WINDS"},"data":[0,0,0,0,0,0,0,0,0,0,0,0,0,0,0,0,0,0,0,0,0,0,0,0,0,0,0,0,0,0,0,0,0,0,0,0,0,0,0,0,0,0,0,0,0,0,0,0,0,0,0,0,0,0,0,0,0,0,5.2988,5.2988,0,5.2994,5.2995,5.2995,5.2945,5.2943,5.2942,5.2941,5.2945,5.2946,5.2948,0,0,0,0,0,0,0,0,0,0,0,0,0,5.2931,5.2933,5.2988,5.2988,5.2988,5.2994,5.2995,5.2995,5.2945,5.2943,5.2942,5.294,5.2945,5.2946,5.2948,0,0,0,0,0,0,0,0,0,0,0,0,0,5.2949,5.2933,5.2988,5.2964,5.2962,5.2994,5.2995,5.2995,5.2945,5.2943,5.2941,5.2939,5.2944,5.2946,5.2948,5.3003,0,0,5.2955,5.2955,0,0,0,0,0,0,0,0,5.2948,5.2951,5.2968,5.2966,5.2964,5.2967,5.2976,5.2997,5.2946,5.2952,5.2941,5.2938,5.2954,5.2955,5.2961,5.3003,5.3003,5.2955,5.2956,5.2957,5.2957,0,0,0,0,0,0,0,5.2947,5.295,5.299,5.2968,5.2966,5.2953,5.2953,5.298,5.2964,5.2951,5.2947,5.2949,5.2952,5.2959,5.296,5.3003,5.2955,5.2957,5.2958,5.2959,5.3092,5.3094,0,0,0,0,0,0,5.2949,5.295,5.299,5.2991,5.2951,5.2956,5.2956,5.2968,5.2964,5.2961,5.2951,5.2947,5.2956,5.2958,5.296,5.3025,5.2957,5.2959,5.296,5.309,5.3092,5.3095,0,0,0,0,0,0,5.2948,5.2953,5.299,5.2969,5.2973,5.2959,5.2973,5.2969,5.2975,5.2964,5.296,5.296,5.2955,5.2957,5.2993,5.3024,5.296,5.2962,5.3087,5.3091,5.3094,5.3154,0,0,0,0,0,0,5.2946,5.2953,5.2973,5.297,5.2974,5.3023,5.2975,5.2971,5.298,5.2974,5.2972,5.2969,5.2953,5.299,5.2995,5.3026,5.2963,5.3084,5.3089,5.3093,5.3149,5.3159,5.3167,0,0,0,0,0,5.2945,5.2989,5.2975,5.298,5.3,5.3025,5.3027,5.3008,5.2982,5.3003,5.2996,5.2969,5.302,5.2994,5.2999,5.3031,5.3082,5.3087,5.3092,5.3145,5.3157,5.3167,0,0,0,0,0,0,5.2995,5.2988,5.2972,5.3017,5.3022,5.3016,5.3041,5.3021,5.3033,5.3027,5.3003,5.3003,5.3043,5.304,5.3012,5.3085,5.3046,5.3053,5.3085,5.3096,5.3105,5.3104,5.2965,0,0,0,0,0,5.3011,5.3033,5.3026,5.3066,5.3069,5.3056,5.3065,5.3051,5.3055,5.3056,5.3051,5.3056,5.3073,5.3084,5.3099,5.3149,5.3148,5.3173,5.3182,5.319,5.3196,5.3223,5.3234,5.3112,5.3112,5.3112,0,0,5.3045,5.3044,5.3059,5.3076,5.3078,5.3101,5.3057,5.3082,5.3099,5.306,5.3093,5.3091,5.3094,5.3137,5.3156,5.3136,5.323,5.3197,5.3203,5.3204,5.3229,5.3241,5.3251,5.3115,5.3115,5.3114,0,0,5.3118,5.312,5.3154,5.3158,5.3163,5.3154,5.3162,5.316,5.3157,5.3191,5.3163,5.3182,5.3211,5.3215,5.3221,5.3299,5.3276,5.3305,5.3352,5.3379,5.3389,5.3397,5.3425,5.3436,5.331,5.331,5.3311,0,5.3159,5.3193,5.3174,5.3202,5.3211,5.3178,5.3213,5.3218,5.3226,5.3233,5.3212,5.3249,5.3249,5.3293,5.3313,5.3318,5.3327,5.3304,5.3389,5.3397,5.3405,5.3431,5.3442,5.3314,5.3314,5.3313,5.3313,0,5.3243,5.3268,5.3295,5.3306,5.3318,5.3349,5.3335,5.335,5.3335,5.3328,5.3364,5.3363,5.3378,5.3387,5.3372,5.343,5.3418,5.3393,5.3354,5.342,5.3445,5.3455,5.3319,5.3318,5.3317,5.3316,0,0,5.3346,5.3349,5.3359,5.3365,5.3369,5.3387,5.3418,5.3434,5.3447,5.3455,5.3479,5.3507,5.3485,5.3491,5.3477,5.35,5.3563,5.3473,5.3472,5.349,5.3628,5.3647,5.3659,5.3548,5.355,5.3552,5.3628,0,5.3418,5.3471,5.3456,5.3509,5.3531,5.3502,5.3529,5.3534,5.353,5.3548,5.3542,5.3562,5.353,5.3535,5.3557,5.3551,5.3591,5.3545,5.3571,5.3572,5.3571,5.3671,5.3691,5.3763,5.3637,5.3639,5.364,0,5.3508,5.3522,5.3578,5.3581,5.3589,5.3614,5.3628,5.3646,5.3652,5.3647,5.3656,5.3637,5.3667,5.3629,5.367,5.364,5.365,5.3649,5.3651,5.3652,5.361,5.3676,5.3785,5.3796,5.3655,5.3654,5.3653,0,5.3578,5.3611,5.3649,5.3654,5.3658,5.3676,5.3678,5.3683,5.3694,5.3706,5.3714,5.3729,5.3737,5.375,5.3736,5.3709,5.378,5.374,5.3776,5.3776,5.3791,5.379,5.3904,5.3798,5.3798,5.3798,5.3798,0,5.366,5.3695,5.3681,5.3704,5.3743,5.3726,5.3765,5.3764,5.3768,5.3791,5.3766,5.3787,5.3768,5.3787,5.3777,5.3813,5.3817,5.3813,5.381,5.3816,5.3816,5.3821,5.3816,5.3801,5.38,5.3799,5.3799,0,5.3744,5.3736,5.3775,5.3777,5.3778,5.3807,5.3808,5.383,5.3824,5.3853,5.3859,5.3849,5.3872,5.3859,5.3881,5.3874,5.3922,5.3911,5.392,5.3917,5.3954,5.3951,5.4075,5.409,5.3975,5.3976,5.3977,0,5.3796,5.3823,5.3829,5.3843,5.3848,5.3871,5.3883,5.3868,5.3881,5.3892,5.3912,5.3933,5.3948,5.3985,5.398,5.3997,5.3987,5.4029,5.3989,5.3995,5.3988,5.3987,5.399,5.4037,5.4038,5.4039,5.404,0,5.3891,5.3886,5.3905,5.3924,5.394,5.3954,5.3965,5.3977,5.3963,5.3979,5.4003,5.4015,5.4039,5.406,5.4075,5.4077,5.4056,5.4053,5.4063,5.4068,5.4073,5.4071,5.3942,5.405,5.4049,5.4048,5.4048,5.4048,5.3961,5.3984,5.3993,5.4015,5.4023,5.4035,5.4056,5.4054,5.4074,5.4093,5.4083,5.4111,5.4117,5.4136,5.4141,5.4162,5.4145,5.4158,5.4161,5.4165,5.417,5.407,5.4164,5.4164,5.4164,5.4163,5.4163,0,5.4054,5.4059,5.4081,5.4099,5.4117,5.4098,5.411,5.4126,5.4152,5.416,5.4177,5.4205,5.4225,5.4223,5.4242,5.4259,5.425,5.4264,5.4263,5.4264,5.4184,5.4174,5.4271,5.4271,5.4271,5.4271,5.4271,5.4271,5.4105,5.4144,5.4141,5.4184,5.4188,5.4217,5.4225,5.4236,5.4243,5.4276,5.4294,5.4293,5.4297,5.4316,5.4334,5.4333,5.4341,5.4359,5.4354,5.428,5.4269,5.4259,5.425,5.4361,5.4361,5.4432,5.4433,5.4433]}]]